Overview Statistics Trail Chart Weather Telemetry Raw packets
 

This is the latest recevied weather packets stored in our database for station/object XE2RCS-1. If no packets are shown the sender has not sent any weather packets the latest 10 day(s).

<< 42 43 44 45 46 47 48 >>
Time Temp. Humidity Pressure Rain* Wind** Luminosity Snow
1788028816 26.11° C 43% 1017 hPa 0 mm - - -
1788028215 26.11° C 42% 1017 hPa 0 mm - - -
1788027614 26.11° C 43% 1018 hPa 0 mm - - -
1788027014 26.67° C 42% 1018 hPa 0 mm - - -
1788026413 26.67° C 42% 1018 hPa 0 mm - - -
1788025812 26.11° C 41% 1018 hPa 0 mm - - -
1788025211 25.56° C 43% 1018 hPa 0 mm - - -
1788024611 25° C 44% 1019 hPa 0 mm - - -
1788024010 25° C 45% 1019 hPa 0 mm - - -
1788023410 25° C 46% 1019 hPa 0 mm - - -
1788022809 25° C 45% 1019 hPa 0 mm - - -
1788022208 25° C 45% 1019 hPa 0 mm - - -
1788021608 25° C 44% 1019 hPa 0 mm - - -
1788021007 25° C 45% 1019 hPa 0 mm - - -
1788020407 25° C 46% 1019 hPa 0 mm - - -
1788019806 25° C 47% 1019 hPa 0 mm - - -
1788019206 25° C 47% 1019 hPa 0 mm - - -
1788018605 23.33° C 53% 1019 hPa 0 mm - - -
1788018004 23.33° C 58% 1019 hPa 0 mm - - -
1788017404 23.89° C 70% 1020 hPa 0 mm - - -
1788016803 23.33° C 67% 1021 hPa 0 mm - - -
1788016202 22.22° C 56% 1021 hPa 0 mm - - -
1788015602 22.22° C 60% 1021 hPa 0 mm - - -
1788015001 22.22° C 60% 1021 hPa 0 mm - - -
1788014401 22.22° C 62% 1021 hPa 0 mm - - -

* Rain latest hour (hover to see other rain measurements)
** Current wind speed in m/s (hover to see current wind gust speed)